EW9807 Weather Reports


time (UTC)temp
F
wind
direction
speed
knots
gust
knots
rain 1hr
in
rain 24hr
in
rain mn
in
humidity
%
barometer
mb
20260505060543 57 122 0.0 0.0 0.00 0.00 0.00 73 1015.2
20260505060054 58 122 0.0 0.0 0.00 0.00 0.00 71 1015.2
20260505055559 58 119 0.0 0.0 0.00 0.00 0.00 68 1015.2
20260505055049 57 119 0.0 0.0 0.00 0.00 0.00 70 1015.2
20260505054556 57 110 0.0 0.0 0.00 0.00 0.00 73 1015.2
20260505054101 56 110 0.0 0.0 0.00 0.00 0.00 74 1015.2
20260505053552 57 110 0.0 0.0 0.00 0.00 0.00 75 1015.3
20260505053100 57 110 0.0 0.0 0.00 0.00 0.00 74 1015.3
20260505052550 57 95 0.0 0.0 0.00 0.00 0.00 73 1015.3
20260505052056 56 95 0.0 0.0 0.00 0.00 0.00 76 1015.3
20260505051547 56 95 0.0 0.0 0.00 0.00 0.00 75 1015.3
20260505051100 57 95 0.0 0.0 0.00 0.00 0.00 75 1015.2
20260505050554 57 95 0.0 0.0 0.00 0.00 0.00 73 1015.2
20260505041559 59 95 0.0 0.0 0.00 0.00 0.00 69 1015.2
20260505041047 60 95 0.0 0.0 0.00 0.00 0.00 66 1015.3
20260505040557 60 95 0.0 0.0 0.00 0.00 0.00 66 1015.3
20260505040135 60 95 0.0 0.0 0.00 0.00 0.00 66 1015.2
20260505035549 60 95 0.0 0.0 0.00 0.00 0.00 66 1015.2
20260505035056 60 95 0.0 0.0 0.00 0.00 0.00 66 1015.2
20260505034605 61 95 0.0 0.0 0.00 0.00 0.00 66 1015.2
20260505034052 61 95 0.0 0.0 0.00 0.00 0.00 65 1015.3
20260505033601 61 95 0.0 0.0 0.00 0.00 0.00 63 1015.4
20260505033048 61 95 0.0 0.0 0.00 0.00 0.00 65 1015.4
20260505032552 61 95 0.0 0.0 0.00 0.00 0.00 65 1015.4
20260505032101 61 95 0.0 0.0 0.00 0.00 0.00 64 1015.4
20260505031551 62 95 0.0 0.0 0.00 0.00 0.00 63 1015.3
20260505030555 62 95 0.0 0.9 0.00 0.00 0.00 64 1015.4
20260505030507 61 95 0.0 0.9 0.00 0.00 0.00 64 1014.9
20260505030133 62 95 0.0 0.9 0.00 0.00 0.00 63 1015.4
20260505030034 61 95 0.0 0.9 0.00 0.00 0.00 63 1014.9
20260505025553 62 95 0.0 0.9 0.00 0.00 0.00 62 1015.4
20260505025055 63 95 0.0 0.9 0.00 0.00 0.00 62 1015.3
20260505024548 64 95 0.0 0.9 0.00 0.00 0.00 61 1015.4
20260505023548 65 95 0.0 0.9 0.00 0.00 0.00 58 1015.4
20260505023057 65 95 0.0 0.9 0.00 0.00 0.00 58 1015.3
20260505022602 65 95 0.0 1.7 0.00 0.00 0.00 57 1015.2
20260505022052 65 95 0.0 1.7 0.00 0.00 0.00 57 1015.2
20260505021558 65 95 0.0 0.9 0.00 0.00 0.00 57 1015.3
20260505020559 65 95 0.0 1.7 0.00 0.00 0.00 57 1015.3
20260505020052 65 95 0.0 1.7 0.00 0.00 0.00 58 1015.2
20260505015555 64 179 0.0 1.7 0.00 0.00 0.00 59 1015.2
20260505015044 64 179 0.9 1.7 0.00 0.00 0.00 60 1015.0
20260505014558 64 179 0.0 0.0 0.00 0.00 0.00 59 1015.0
20260505014046 65 179 0.0 0.0 0.00 0.00 0.00 58 1015.0
20260505013552 65 179 0.0 0.0 0.00 0.00 0.00 57 1015.0
20260505013100 65 179 0.0 0.0 0.00 0.00 0.00 56 1014.9
20260505012545 66 179 0.0 0.0 0.00 0.00 0.00 55 1014.9
20260505012055 67 179 0.0 0.0 0.00 0.00 0.00 53 1014.9
20260505011546 67 179 0.0 0.0 0.00 0.00 0.00 53 1014.8
20260505010550 69 179 0.0 0.0 0.00 0.00 0.00 49 1014.7
20260505010056 70 179 0.0 0.9 0.00 0.00 0.00 48 1014.6
20260505005558 70 179 0.0 0.9 0.00 0.00 0.00 47 1014.7
20260505005048 70 179 0.0 2.6 0.00 0.00 0.00 46 1014.6
20260505004558 71 179 0.9 3.5 0.00 0.00 0.00 46 1014.6
20260505003558 71 175 1.7 5.2 0.00 0.00 0.00 45 1014.4
20260505002550 72 167 0.0 0.9 0.00 0.00 0.00 44 1014.3
20260505002059 73 167 0.0 1.7 0.00 0.00 0.00 44 1014.2
20260505001607 73 167 0.0 1.7 0.00 0.00 0.00 43 1014.3
20260505001053 73 166 0.9 1.7 0.00 0.00 0.00 44 1014.2
20260505000559 73 166 0.9 1.7 0.00 0.00 0.00 43 1014.2
20260504235558 74 180 0.0 2.6 0.00 0.00 0.00 41 1014.1
20260504235048 74 180 0.9 2.6 0.00 0.00 0.00 41 1014.1
20260504234552 74 143 0.9 2.6 0.00 0.00 0.00 41 1014.1
20260504234102 74 195 0.0 3.5 0.00 0.00 0.00 41 1014.1
20260504233553 75 184 0.9 4.3 0.00 0.00 0.00 40 1014.2
20260504233101 75 133 0.0 4.3 0.00 0.00 0.00 40 1014.2
20260504232545 75 131 0.9 4.3 0.00 0.00 0.00 39 1014.2
20260504232051 75 109 0.0 5.2 0.00 0.00 0.00 39 1014.2
20260504230602 75 188 1.7 4.3 0.00 0.00 0.00 39 1014.4
20260504230051 75 122 0.9 4.3 0.00 0.00 0.00 39 1014.4
20260504225555 75 195 1.7 4.3 0.00 0.00 0.00 38 1014.3
20260504225100 76 228 0.9 4.3 0.00 0.00 0.00 38 1014.3
20260504224547 76 144 0.9 7.0 0.00 0.00 0.00 39 1014.4
20260504224059 75 132 2.6 7.0 0.00 0.00 0.00 39 1014.4
20260504223546 76 234 1.7 4.3 0.00 0.00 0.00 38 1014.3
20260504223100 76 113 0.9 4.3 0.00 0.00 0.00 37 1014.4
20260504222058 76 194 2.6 4.3 0.00 0.00 0.00 38 1014.4
20260504221544 76 141 1.7 5.2 0.00 0.00 0.00 39 1014.4
20260504221057 76 120 1.7 5.2 0.00 0.00 0.00 38 1014.4
20260504220604 76 149 1.7 4.3 0.00 0.00 0.00 41 1014.4
20260504220057 76 188 1.7 4.3 0.00 0.00 0.00 38 1014.4
20260504215602 76 186 1.7 4.3 0.00 0.00 0.00 40 1014.4
20260504215052 76 105 0.9 7.0 0.00 0.00 0.00 38 1014.3
20260504214552 76 145 0.9 7.0 0.00 0.00 0.00 38 1014.2
20260504214100 76 188 1.7 5.2 0.00 0.00 0.00 37 1014.3
20260504213547 76 217 3.5 5.2 0.00 0.00 0.00 37 1014.3
20260504213054 75 131 2.6 5.2 0.00 0.00 0.00 37 1014.3
20260504212519 75 189 1.7 3.5 0.00 0.00 0.00 36 1013.8
20260504212047 76 154 1.7 4.3 0.00 0.00 0.00 36 1014.2
20260504211558 76 119 1.7 4.3 0.00 0.00 0.00 37 1014.2
20260504211048 76 144 0.9 5.2 0.00 0.00 0.00 37 1014.3
20260504210559 76 148 0.9 5.2 0.00 0.00 0.00 37 1014.3
20260504210116 76 186 1.7 6.1 0.00 0.00 0.00 36 1014.4
20260504205600 76 162 2.6 6.1 0.00 0.00 0.00 36 1014.5
20260504204552 76 181 1.7 4.3 0.00 0.00 0.00 39 1014.6
20260504204101 76 201 1.7 5.2 0.00 0.00 0.00 38 1014.6
20260504203547 77 220 1.7 5.2 0.00 0.00 0.00 37 1014.6
20260504203056 76 136 1.7 4.3 0.00 0.00 0.00 36 1014.6
20260504202602 76 192 2.6 5.2 0.00 0.00 0.00 37 1014.7
20260504202054 77 195 1.7 7.0 0.00 0.00 0.00 35 1014.8
20260504201542 77 242 1.7 8.7 0.00 0.00 0.00 34 1014.7
20260504201055 77 162 1.7 8.7 0.00 0.00 0.00 38 1014.8
20260504200546 76 200 1.7 4.3 0.00 0.00 0.00 35 1014.8
20260504200051 76 188 0.9 4.3 0.00 0.00 0.00 36 1014.9
20260504195558 76 47 0.9 6.1 0.00 0.00 0.00 36 1014.9
20260504195051 77 181 4.3 6.1 0.00 0.00 0.00 33 1015.0
20260504194558 77 206 1.7 7.0 0.00 0.00 0.00 33 1015.0
20260504194047 78 131 2.6 7.0 0.00 0.00 0.00 31 1015.1
20260504193052 77 217 1.7 4.3 0.00 0.00 0.00 36 1015.3
20260504192555 77 162 2.6 7.0 0.00 0.00 0.00 39 1015.4
20260504192103 77 186 2.6 7.0 0.00 0.00 0.00 40 1015.4
20260504191555 76 167 1.7 2.6 0.00 0.00 0.00 37 1015.6
20260504191106 77 227 0.9 4.3 0.00 0.00 0.00 37 1015.6
20260504190553 77 189 2.6 4.3 0.00 0.00 0.00 40 1015.6
20260504185549 77 255 3.5 7.0 0.00 0.00 0.00 37 1015.8
20260504185057 77 229 2.6 7.0 0.00 0.00 0.00 40 1015.8
20260504184601 76 101 0.9 6.1 0.00 0.00 0.00 38 1015.9
20260504184050 76 214 1.7 4.3 0.00 0.00 0.00 38 1016.0
20260504183602 77 209 1.7 6.1 0.00 0.00 0.00 39 1016.0
20260504182602 76 176 1.7 3.5 0.00 0.00 0.00 37 1016.2
20260504182052 76 148 0.0 4.3 0.00 0.00 0.00 37 1016.2
20260504181544 77 167 1.7 7.0 0.00 0.00 0.00 35 1016.3
20260504181055 77 189 3.5 7.0 0.00 0.00 0.00 35 1016.4
20260504180602 77 152 3.5 6.1 0.00 0.00 0.00 39 1016.4
20260504180109 76 202 1.7 6.1 0.00 0.00 0.00 39 1016.4
20260504175552 75 172 0.9 6.1 0.00 0.00 0.00 38 1016.5
20260504175103 75 82 1.7 5.2 0.00 0.00 0.00 39 1016.5
20260504174553 76 196 2.6 6.1 0.00 0.00 0.00 41 1016.7
20260504173555 76 155 1.7 5.2 0.00 0.00 0.00 42 1016.8
20260504173101 75 169 1.7 5.2 0.00 0.00 0.00 43 1016.8
20260504172549 75 202 0.0 5.2 0.00 0.00 0.00 41 1016.9
20260504172100 74 219 2.6 5.2 0.00 0.00 0.00 41 1017.0
20260504171551 73 46 0.9 2.6 0.00 0.00 0.00 41 1017.1
20260504171058 73 47 1.7 3.5 0.00 0.00 0.00 42 1017.1
20260504170550 74 130 1.7 3.5 0.00 0.00 0.00 42 1017.1
20260504170504 73 187 1.7 3.5 0.00 0.00 0.00 42 1016.7
20260504170134 74 288 0.9 4.3 0.00 0.00 0.00 42 1017.1
20260504151052 69 195 3.5 7.0 0.00 0.00 0.00 46 1018.3
20260504150543 69 176 0.9 3.5 0.00 0.00 0.00 48 1018.2
20260504141054 63 165 2.6 4.3 0.00 0.00 0.00 64 1018.6
20260504140546 62 212 0.9 4.3 0.00 0.00 0.00 66 1018.7
20260504130545 54 184 0.9 1.7 0.00 0.00 0.00 78 1018.5
20260504110553 44 295 0.0 0.0 0.00 0.00 0.00 93 1017.8
20260504110508 44 295 0.0 0.0 0.00 0.00 0.00 93 1017.6
20260504110135 44 295 0.0 0.0 0.00 0.00 0.00 93 1017.7
20260504100555 45 169 0.0 0.0 0.00 0.00 0.00 93 1017.7
20260504081600 46 169 0.0 0.0 0.00 0.00 0.00 90 1018.0